Time,TemperatureF,DewpointF,PressureIn,WindDirection,WindDirectionDegrees,WindSpeedMPH,WindSpeedGustMPH,Humidity,HourlyPrecipIn,Conditions,Clouds,dailyrainin,SoftwareType,DateUTC
2013-05-27 00:03:00,58.4,48.7,30.03,ESE,108,4.0,4.0,70,0.00,,,0.00,Wunderground v.1.15,2013-05-27 05:03:00,
2013-05-27 00:08:00,58.4,49.0,30.04,ENE,69,5.0,5.0,71,0.00,,,0.00,Wunderground v.1.15,2013-05-27 05:08:00,
2013-05-27 00:15:00,58.4,49.0,30.04,SE,128,0.0,5.0,71,0.00,,,0.00,Wunderground v.1.15,2013-05-27 05:15:00,
2013-05-27 00:20:00,58.4,49.0,30.05,SE,141,5.0,5.0,71,0.00,,,0.00,Wunderground v.1.15,2013-05-27 05:20:00,
2013-05-27 00:25:00,58.4,49.0,30.05,East,88,1.0,5.0,71,0.00,,,0.00,Wunderground v.1.15,2013-05-27 05:25:00,
2013-05-27 00:30:00,58.4,49.0,30.04,ESE,105,7.0,7.0,71,0.00,,,0.00,Wunderground v.1.15,2013-05-27 05:30:00,
2013-05-27 00:36:00,58.4,49.0,30.05,East,96,5.0,5.0,71,0.00,,,0.00,Wunderground v.1.15,2013-05-27 05:36:00,
2013-05-27 00:42:00,58.4,49.4,30.05,ESE,103,0.0,3.0,72,0.00,,,0.00,Wunderground v.1.15,2013-05-27 05:42:00,
2013-05-27 00:47:00,58.4,49.4,30.05,East,94,2.0,6.0,72,0.00,,,0.00,Wunderground v.1.15,2013-05-27 05:47:00,
2013-05-27 00:52:00,58.3,49.3,30.06,East,82,0.0,5.0,72,0.00,,,0.00,Wunderground v.1.15,2013-05-27 05:52:00,
2013-05-27 00:59:00,58.3,49.7,30.05,East,80,0.0,5.0,73,0.00,,,0.00,Wunderground v.1.15,2013-05-27 05:59:00,
2013-05-27 01:04:00,58.3,49.7,30.04,ESE,109,0.0,6.0,73,0.00,,,0.00,Wunderground v.1.15,2013-05-27 06:04:00,
2013-05-27 01:10:00,58.3,49.7,30.04,East,98,0.0,6.0,73,0.00,,,0.00,Wunderground v.1.15,2013-05-27 06:10:00,
2013-05-27 01:15:00,58.3,49.7,30.04,ENE,67,1.0,5.0,73,0.00,,,0.00,Wunderground v.1.15,2013-05-27 06:15:00,
2013-05-27 01:20:00,58.3,50.0,30.03,East,88,0.0,5.0,74,0.00,,,0.00,Wunderground v.1.15,2013-05-27 06:20:00,
2013-05-27 01:26:00,58.3,50.0,30.03,ESE,118,0.0,8.0,74,0.00,,,0.00,Wunderground v.1.15,2013-05-27 06:26:00,
2013-05-27 01:32:00,58.2,50.0,30.03,ESE,119,2.0,2.0,74,0.00,,,0.00,Wunderground v.1.15,2013-05-27 06:32:00,
2013-05-27 01:38:00,58.2,50.0,30.02,East,101,0.0,5.0,74,0.00,,,0.00,Wunderground v.1.15,2013-05-27 06:38:00,
2013-05-27 01:44:00,58.2,50.0,30.02,East,90,0.0,5.0,74,0.00,,,0.00,Wunderground v.1.15,2013-05-27 06:44:00,
2013-05-27 01:50:00,58.2,50.0,30.02,East,84,5.0,5.0,74,0.00,,,0.00,Wunderground v.1.15,2013-05-27 06:50:00,
2013-05-27 01:55:00,58.2,50.0,30.02,East,86,2.0,7.0,74,0.00,,,0.00,Wunderground v.1.15,2013-05-27 06:55:00,
2013-05-27 02:00:00,58.2,50.0,30.02,ESE,111,5.0,8.0,74,0.00,,,0.00,Wunderground v.1.15,2013-05-27 07:00:00,
2013-05-27 02:06:00,58.3,50.0,30.01,SE,142,0.0,6.0,74,0.00,,,0.00,Wunderground v.1.15,2013-05-27 07:06:00,
2013-05-27 02:11:00,58.3,50.0,30.02,ESE,111,0.0,7.0,74,0.00,,,0.00,Wunderground v.1.15,2013-05-27 07:11:00,
2013-05-27 02:16:00,58.3,50.0,30.02,SE,129,2.0,8.0,74,0.00,,,0.00,Wunderground v.1.15,2013-05-27 07:16:00,
2013-05-27 02:21:00,58.3,50.0,30.02,SE,126,0.0,8.0,74,0.00,,,0.00,Wunderground v.1.15,2013-05-27 07:21:00,
2013-05-27 02:26:00,58.2,50.0,30.02,East,88,0.0,7.0,74,0.00,,,0.00,Wunderground v.1.15,2013-05-27 07:26:00,
2013-05-27 02:31:00,58.2,50.0,30.02,ESE,118,0.0,9.0,74,0.00,,,0.00,Wunderground v.1.15,2013-05-27 07:31:00,
2013-05-27 02:36:00,58.2,49.6,30.03,East,80,1.0,8.0,73,0.00,,,0.00,Wunderground v.1.15,2013-05-27 07:36:00,
2013-05-27 02:41:00,58.2,49.6,30.03,East,99,0.0,1.0,73,0.00,,,0.00,Wunderground v.1.15,2013-05-27 07:41:00,
2013-05-27 02:47:00,58.2,50.0,30.03,East,82,3.0,7.0,74,0.00,,,0.00,Wunderground v.1.15,2013-05-27 07:47:00,
2013-05-27 02:52:00,58.2,49.6,30.03,East,90,0.0,1.0,73,0.00,,,0.00,Wunderground v.1.15,2013-05-27 07:52:00,
2013-05-27 02:57:00,58.2,49.6,30.03,ESE,111,5.0,7.0,73,0.00,,,0.00,Wunderground v.1.15,2013-05-27 07:57:00,
2013-05-27 03:02:00,58.2,50.0,30.03,SE,132,4.0,4.0,74,0.00,,,0.00,Wunderground v.1.15,2013-05-27 08:02:00,
2013-05-27 03:07:00,58.2,50.0,30.02,ESE,111,0.0,7.0,74,0.00,,,0.00,Wunderground v.1.15,2013-05-27 08:07:00,
2013-05-27 03:12:00,58.1,49.9,30.02,ENE,77,4.0,4.0,74,0.00,,,0.00,Wunderground v.1.15,2013-05-27 08:12:00,
2013-05-27 03:17:00,58.2,50.0,30.01,East,84,0.0,6.0,74,0.00,,,0.00,Wunderground v.1.15,2013-05-27 08:17:00,
2013-05-27 03:22:00,58.2,50.0,30.01,SE,142,0.0,7.0,74,0.00,,,0.00,Wunderground v.1.15,2013-05-27 08:22:00,
2013-05-27 03:28:00,58.1,49.9,30.01,ESE,121,4.0,7.0,74,0.00,,,0.00,Wunderground v.1.15,2013-05-27 08:28:00,
2013-05-27 03:33:00,58.1,49.9,30.01,ENE,76,3.0,8.0,74,0.00,,,0.00,Wunderground v.1.15,2013-05-27 08:33:00,
2013-05-27 03:38:00,58.1,49.9,30.00,ESE,113,0.0,8.0,74,0.00,,,0.00,Wunderground v.1.15,2013-05-27 08:38:00,
2013-05-27 03:43:00,58.0,49.8,29.99,SE,134,0.0,7.0,74,0.00,,,0.00,Wunderground v.1.15,2013-05-27 08:43:00,
2013-05-27 03:48:00,58.0,50.1,29.98,East,98,0.0,7.0,75,0.00,,,0.00,Wunderground v.1.15,2013-05-27 08:48:00,
2013-05-27 03:53:00,57.9,50.0,29.98,SE,126,0.0,5.0,75,0.00,,,0.00,Wunderground v.1.15,2013-05-27 08:53:00,
2013-05-27 03:58:00,57.8,50.3,29.98,ESE,116,0.0,6.0,76,0.00,,,0.00,Wunderground v.1.15,2013-05-27 08:58:00,
2013-05-27 04:04:00,57.8,50.3,29.98,ESE,123,5.0,6.0,76,0.00,,,0.00,Wunderground v.1.15,2013-05-27 09:04:00,
2013-05-27 04:09:00,57.8,50.3,29.98,SE,133,1.0,7.0,76,0.00,,,0.00,Wunderground v.1.15,2013-05-27 09:09:00,
2013-05-27 04:14:00,57.7,50.2,29.98,ESE,114,5.0,7.0,76,0.00,,,0.00,Wunderground v.1.15,2013-05-27 09:14:00,
2013-05-27 04:20:00,57.7,50.5,29.98,ESE,103,4.0,8.0,77,0.00,,,0.00,Wunderground v.1.15,2013-05-27 09:20:00,
2013-05-27 04:25:00,57.7,50.9,29.98,East,98,0.0,7.0,78,0.00,,,0.00,Wunderground v.1.15,2013-05-27 09:25:00,
2013-05-27 04:30:00,57.6,50.4,29.98,East,86,4.0,7.0,77,0.00,,,0.00,Wunderground v.1.15,2013-05-27 09:30:00,
2013-05-27 04:35:00,57.6,50.4,29.98,East,97,4.0,4.0,77,0.00,,,0.00,Wunderground v.1.15,2013-05-27 09:35:00,
2013-05-27 04:40:00,57.5,50.7,29.99,ESE,103,0.0,6.0,78,0.00,,,0.00,Wunderground v.1.15,2013-05-27 09:40:00,
2013-05-27 04:45:00,57.4,50.6,29.99,ESE,120,0.0,4.0,78,0.00,,,0.00,Wunderground v.1.15,2013-05-27 09:45:00,
2013-05-27 04:50:00,57.4,50.6,29.99,SSE,163,0.0,6.0,78,0.00,,,0.00,Wunderground v.1.15,2013-05-27 09:50:00,
2013-05-27 04:55:00,57.4,50.6,29.99,ESE,105,0.0,5.0,78,0.00,,,0.00,Wunderground v.1.15,2013-05-27 09:55:00,
2013-05-27 05:00:00,57.3,50.5,29.99,East,101,0.0,9.0,78,0.00,,,0.00,Wunderground v.1.15,2013-05-27 10:00:00,
2013-05-27 05:05:00,57.3,50.5,29.99,ESE,105,0.0,5.0,78,0.00,,,0.00,Wunderground v.1.15,2013-05-27 10:05:00,
2013-05-27 05:11:00,57.2,50.7,29.99,ENE,78,0.0,6.0,79,0.00,,,0.00,Wunderground v.1.15,2013-05-27 10:11:00,
2013-05-27 05:16:00,57.2,50.7,29.99,East,90,0.0,6.0,79,0.00,,,0.00,Wunderground v.1.15,2013-05-27 10:16:00,
2013-05-27 05:21:00,57.2,50.7,29.99,East,95,4.0,6.0,79,0.00,,,0.00,Wunderground v.1.15,2013-05-27 10:21:00,
2013-05-27 05:26:00,57.2,50.7,29.99,East,98,6.0,7.0,79,0.00,,,0.00,Wunderground v.1.15,2013-05-27 10:26:00,
2013-05-27 05:31:00,57.1,51.0,29.99,SSE,148,1.0,7.0,80,0.00,,,0.00,Wunderground v.1.15,2013-05-27 10:31:00,
2013-05-27 05:36:00,57.1,50.6,29.99,ESE,122,0.0,6.0,79,0.00,,,0.00,Wunderground v.1.15,2013-05-27 10:36:00,
2013-05-27 05:41:00,57.0,50.9,29.99,ESE,122,0.0,6.0,80,0.00,,,0.00,Wunderground v.1.15,2013-05-27 10:41:00,
2013-05-27 05:46:00,57.0,50.9,29.99,East,92,2.0,6.0,80,0.00,,,0.00,Wunderground v.1.15,2013-05-27 10:46:00,
2013-05-27 05:51:00,56.9,50.8,30.00,ESE,105,0.0,1.0,80,0.00,,,0.00,Wunderground v.1.15,2013-05-27 10:51:00,
2013-05-27 05:56:00,56.9,50.8,29.99,ESE,103,0.0,4.0,80,0.00,,,0.00,Wunderground v.1.15,2013-05-27 10:56:00,
2013-05-27 06:02:00,56.9,50.8,29.99,ENE,77,0.0,2.0,80,0.00,,,0.00,Wunderground v.1.15,2013-05-27 11:02:00,
2013-05-27 06:07:00,56.8,50.7,30.00,East,90,0.0,5.0,80,0.00,,,0.00,Wunderground v.1.15,2013-05-27 11:07:00,
2013-05-27 06:12:00,56.8,51.0,30.00,ESE,117,0.0,2.0,81,0.00,,,0.00,Wunderground v.1.15,2013-05-27 11:12:00,
2013-05-27 06:17:00,56.8,51.0,29.99,ESE,107,0.0,5.0,81,0.00,,,0.00,Wunderground v.1.15,2013-05-27 11:17:00,
2013-05-27 06:22:00,56.8,51.0,29.99,ESE,107,0.0,0.0,81,0.00,,,0.00,Wunderground v.1.15,2013-05-27 11:22:00,
2013-05-27 06:27:00,56.8,51.0,29.99,East,81,3.0,5.0,81,0.00,,,0.00,Wunderground v.1.15,2013-05-27 11:27:00,
2013-05-27 06:32:00,56.8,51.0,29.99,East,101,7.0,7.0,81,0.00,,,0.00,Wunderground v.1.15,2013-05-27 11:32:00,
2013-05-27 06:38:00,56.8,51.0,29.99,East,85,0.0,7.0,81,0.00,,,0.00,Wunderground v.1.15,2013-05-27 11:38:00,
2013-05-27 06:43:00,56.8,51.0,29.98,East,101,0.0,7.0,81,0.00,,,0.00,Wunderground v.1.15,2013-05-27 11:43:00,
2013-05-27 06:48:00,56.8,51.0,29.98,East,100,7.0,10.0,81,0.00,,,0.00,Wunderground v.1.15,2013-05-27 11:48:00,
2013-05-27 06:53:00,56.8,51.0,29.98,East,91,0.0,9.0,81,0.00,,,0.00,Wunderground v.1.15,2013-05-27 11:53:00,
2013-05-27 06:58:00,56.9,51.1,29.98,ENE,71,3.0,11.0,81,0.00,,,0.00,Wunderground v.1.15,2013-05-27 11:58:00,
2013-05-27 07:03:00,56.9,51.5,29.98,East,81,3.0,4.0,82,0.00,,,0.00,Wunderground v.1.15,2013-05-27 12:03:00,
2013-05-27 07:09:00,56.9,51.1,29.98,SE,128,4.0,11.0,81,0.00,,,0.00,Wunderground v.1.15,2013-05-27 12:09:00,
2013-05-27 07:14:00,56.9,51.5,29.98,ENE,69,6.0,9.0,82,0.00,,,0.00,Wunderground v.1.15,2013-05-27 12:14:00,
2013-05-27 07:19:00,56.8,51.4,29.98,East,101,8.0,9.0,82,0.00,,,0.00,Wunderground v.1.15,2013-05-27 12:19:00,
2013-05-27 07:24:00,56.8,51.4,29.98,East,82,6.0,8.0,82,0.00,,,0.00,Wunderground v.1.15,2013-05-27 12:24:00,
2013-05-27 07:29:00,56.7,51.3,29.98,East,94,6.0,11.0,82,0.00,,,0.00,Wunderground v.1.15,2013-05-27 12:29:00,
2013-05-27 07:34:00,56.7,51.3,29.98,ESE,110,5.0,6.0,82,0.00,,,0.00,Wunderground v.1.15,2013-05-27 12:34:00,
2013-05-27 07:39:00,56.6,51.5,29.97,SE,125,6.0,12.0,83,0.00,,,0.00,Wunderground v.1.15,2013-05-27 12:39:00,
2013-05-27 07:45:00,56.6,51.5,29.97,ESE,114,7.0,8.0,83,0.00,,,0.00,Wunderground v.1.15,2013-05-27 12:45:00,
2013-05-27 07:50:00,56.5,51.4,29.97,SE,136,0.0,8.0,83,0.00,,,0.00,Wunderground v.1.15,2013-05-27 12:50:00,
2013-05-27 07:55:00,56.6,51.5,29.97,ESE,111,6.0,9.0,83,0.00,,,0.00,Wunderground v.1.15,2013-05-27 12:55:00,
2013-05-27 08:00:00,56.6,51.5,29.97,ESE,122,2.0,12.0,83,0.00,,,0.00,Wunderground v.1.15,2013-05-27 13:00:00,
2013-05-27 08:05:00,56.5,51.4,29.97,SSE,157,5.0,8.0,83,0.00,,,0.00,Wunderground v.1.15,2013-05-27 13:05:00,
2013-05-27 08:10:00,56.5,51.4,29.97,ESE,113,4.0,13.0,83,0.00,,,0.00,Wunderground v.1.15,2013-05-27 13:10:00,
2013-05-27 08:15:00,56.5,51.4,29.97,SSW,198,3.0,8.0,83,0.00,,,0.00,Wunderground v.1.15,2013-05-27 13:15:00,
2013-05-27 08:20:00,56.6,51.8,29.97,East,98,4.0,8.0,84,0.00,,,0.00,Wunderground v.1.15,2013-05-27 13:20:00,
2013-05-27 08:25:00,56.6,51.5,29.97,East,94,0.0,9.0,83,0.00,,,0.00,Wunderground v.1.15,2013-05-27 13:25:00,
2013-05-27 08:30:00,56.7,51.6,29.97,SW,215,3.0,9.0,83,0.00,,,0.00,Wunderground v.1.15,2013-05-27 13:30:00,
2013-05-27 08:35:00,56.7,51.3,29.97,South,171,0.0,12.0,82,0.00,,,0.00,Wunderground v.1.15,2013-05-27 13:35:00,
2013-05-27 08:40:00,56.8,51.4,29.97,ESE,113,6.0,12.0,82,0.00,,,0.00,Wunderground v.1.15,2013-05-27 13:40:00,
2013-05-27 08:45:00,56.8,51.7,29.97,East,87,5.0,12.0,83,0.00,,,0.00,Wunderground v.1.15,2013-05-27 13:45:00,
2013-05-27 08:51:00,56.9,51.5,29.97,East,90,0.0,12.0,82,0.00,,,0.00,Wunderground v.1.15,2013-05-27 13:51:00,
2013-05-27 08:56:00,56.9,51.8,29.96,ESE,117,4.0,5.0,83,0.00,,,0.00,Wunderground v.1.15,2013-05-27 13:56:00,
2013-05-27 09:01:00,56.9,51.8,29.95,ENE,74,2.0,9.0,83,0.00,,,0.00,Wunderground v.1.15,2013-05-27 14:01:00,
2013-05-27 09:06:00,57.0,51.6,29.95,East,87,6.0,8.0,82,0.00,,,0.00,Wunderground v.1.15,2013-05-27 14:06:00,
2013-05-27 09:11:00,57.2,52.1,29.95,East,82,2.0,8.0,83,0.00,,,0.00,Wunderground v.1.15,2013-05-27 14:11:00,
2013-05-27 09:16:00,57.3,51.9,29.95,East,88,3.0,8.0,82,0.00,,,0.00,Wunderground v.1.15,2013-05-27 14:16:00,
2013-05-27 09:21:00,57.5,52.0,29.96,South,169,6.0,8.0,82,0.00,,,0.00,Wunderground v.1.15,2013-05-27 14:21:00,
2013-05-27 09:26:00,57.7,51.9,29.96,East,93,1.0,9.0,81,0.00,,,0.00,Wunderground v.1.15,2013-05-27 14:26:00,
2013-05-27 09:32:00,57.6,51.8,29.96,East,96,4.0,5.0,81,0.00,,,0.00,Wunderground v.1.15,2013-05-27 14:32:00,
2013-05-27 09:37:00,57.6,51.8,29.96,East,84,5.0,8.0,81,0.00,,,0.00,Wunderground v.1.15,2013-05-27 14:37:00,
2013-05-27 09:42:00,57.7,51.9,29.97,East,94,9.0,9.0,81,0.00,,,0.00,Wunderground v.1.15,2013-05-27 14:42:00,
2013-05-27 09:47:00,57.8,51.7,29.96,SE,146,2.0,9.0,80,0.00,,,0.00,Wunderground v.1.15,2013-05-27 14:47:00,
2013-05-27 09:52:00,58.1,52.0,29.95,ESE,123,2.0,4.0,80,0.00,,,0.00,Wunderground v.1.15,2013-05-27 14:52:00,
2013-05-27 09:57:00,58.4,51.9,29.95,East,84,3.0,6.0,79,0.00,,,0.00,Wunderground v.1.15,2013-05-27 14:57:00,
2013-05-27 10:02:00,58.9,52.1,29.95,ENE,78,5.0,7.0,78,0.00,,,0.00,Wunderground v.1.15,2013-05-27 15:02:00,
2013-05-27 10:08:00,59.3,52.4,29.94,ESE,111,0.0,7.0,78,0.00,,,0.00,Wunderground v.1.15,2013-05-27 15:08:00,
2013-05-27 10:13:00,59.6,51.7,29.94,ENE,69,1.0,8.0,75,0.00,,,0.00,Wunderground v.1.15,2013-05-27 15:13:00,
2013-05-27 10:18:00,59.7,52.1,29.94,East,101,0.0,8.0,76,0.00,,,0.00,Wunderground v.1.15,2013-05-27 15:18:00,
2013-05-27 10:23:00,59.9,52.0,29.94,ESE,123,7.0,9.0,75,0.00,,,0.00,Wunderground v.1.15,2013-05-27 15:23:00,
2013-05-27 10:28:00,59.9,52.0,29.94,NNE,23,6.0,9.0,75,0.00,,,0.00,Wunderground v.1.15,2013-05-27 15:28:00,
2013-05-27 10:33:00,59.8,51.5,29.94,ESE,111,4.0,11.0,74,0.00,,,0.00,Wunderground v.1.15,2013-05-27 15:33:00,
2013-05-27 10:39:00,59.6,51.7,29.94,ESE,105,4.0,12.0,75,0.00,,,0.00,Wunderground v.1.15,2013-05-27 15:39:00,
2013-05-27 10:44:00,59.6,51.7,29.94,SSE,148,2.0,6.0,75,0.00,,,0.00,Wunderground v.1.15,2013-05-27 15:44:00,
2013-05-27 10:49:00,59.6,51.7,29.94,ESE,118,0.0,11.0,75,0.00,,,0.00,Wunderground v.1.15,2013-05-27 15:49:00,
2013-05-27 10:54:00,59.8,51.5,29.93,ESE,105,13.0,13.0,74,0.00,,,0.00,Wunderground v.1.15,2013-05-27 15:54:00,
2013-05-27 10:59:00,59.9,51.6,29.93,SE,131,6.0,13.0,74,0.00,,,0.00,Wunderground v.1.15,2013-05-27 15:59:00,
2013-05-27 11:04:00,60.0,51.3,29.92,NNE,30,0.0,9.0,73,0.00,,,0.00,Wunderground v.1.15,2013-05-27 16:04:00,
2013-05-27 11:09:00,60.2,51.1,29.92,East,88,6.0,9.0,72,0.00,,,0.00,Wunderground v.1.15,2013-05-27 16:09:00,
2013-05-27 11:14:00,60.4,51.3,29.92,East,80,6.0,9.0,72,0.00,,,0.00,Wunderground v.1.15,2013-05-27 16:14:00,
2013-05-27 11:19:00,60.4,50.6,29.92,ESE,116,6.0,12.0,70,0.00,,,0.00,Wunderground v.1.15,2013-05-27 16:19:00,
2013-05-27 11:24:00,60.3,50.9,29.91,ESE,117,6.0,9.0,71,0.00,,,0.00,Wunderground v.1.15,2013-05-27 16:24:00,
2013-05-27 11:29:00,60.3,50.9,29.91,East,101,5.0,12.0,71,0.00,,,0.00,Wunderground v.1.15,2013-05-27 16:29:00,
2013-05-27 11:34:00,60.1,50.7,29.92,East,100,8.0,16.0,71,0.00,,,0.00,Wunderground v.1.15,2013-05-27 16:34:00,
2013-05-27 11:39:00,59.9,50.8,29.92,East,86,2.0,16.0,72,0.00,,,0.00,Wunderground v.1.15,2013-05-27 16:39:00,
2013-05-27 11:45:00,59.7,51.0,29.91,East,100,5.0,9.0,73,0.00,,,0.00,Wunderground v.1.15,2013-05-27 16:45:00,
2013-05-27 11:50:00,59.5,50.5,29.91,ENE,74,3.0,10.0,72,0.00,,,0.00,Wunderground v.1.15,2013-05-27 16:50:00,
2013-05-27 11:55:00,59.3,50.6,29.91,East,82,6.0,12.0,73,0.00,,,0.00,Wunderground v.1.15,2013-05-27 16:55:00,
2013-05-27 12:00:00,59.3,51.0,29.90,East,82,7.0,12.0,74,0.00,,,0.00,Wunderground v.1.15,2013-05-27 17:00:00,
2013-05-27 12:05:00,59.2,50.9,29.91,ENE,65,1.0,12.0,74,0.00,,,0.00,Wunderground v.1.15,2013-05-27 17:05:00,
2013-05-27 12:10:00,59.1,50.8,29.91,ENE,72,6.0,12.0,74,0.00,,,0.00,Wunderground v.1.15,2013-05-27 17:10:00,
2013-05-27 12:16:00,58.9,51.0,29.91,ESE,107,12.0,12.0,75,0.00,,,0.00,Wunderground v.1.15,2013-05-27 17:16:00,
2013-05-27 12:21:00,58.7,51.5,29.90,East,80,0.0,12.0,77,0.00,,,0.00,Wunderground v.1.15,2013-05-27 17:21:00,
2013-05-27 12:26:00,58.7,51.5,29.90,East,83,7.0,7.0,77,0.00,,,0.00,Wunderground v.1.15,2013-05-27 17:26:00,
2013-05-27 12:31:00,59.0,51.4,29.90,East,98,4.0,11.0,76,0.00,,,0.00,Wunderground v.1.15,2013-05-27 17:31:00,
2013-05-27 12:36:00,59.3,51.7,29.89,ENE,71,6.0,8.0,76,0.00,,,0.00,Wunderground v.1.15,2013-05-27 17:36:00,
2013-05-27 12:41:00,59.5,51.9,29.89,ENE,69,3.0,5.0,76,0.00,,,0.00,Wunderground v.1.15,2013-05-27 17:41:00,
2013-05-27 12:47:00,59.8,52.2,29.89,East,85,3.0,13.0,76,0.00,,,0.00,Wunderground v.1.15,2013-05-27 17:47:00,
2013-05-27 12:52:00,60.0,52.8,29.89,SE,126,8.0,8.0,77,0.00,,,0.00,Wunderground v.1.15,2013-05-27 17:52:00,
2013-05-27 12:57:00,60.0,52.8,29.89,ENE,57,4.0,12.0,77,0.00,,,0.00,Wunderground v.1.15,2013-05-27 17:57:00,
2013-05-27 13:02:00,60.0,52.8,29.89,East,86,0.0,5.0,77,0.00,,,0.00,Wunderground v.1.15,2013-05-27 18:02:00,
2013-05-27 13:07:00,59.9,53.0,29.89,SE,126,4.0,9.0,78,0.00,,,0.00,Wunderground v.1.15,2013-05-27 18:07:00,
2013-05-27 13:12:00,59.9,53.0,29.89,East,81,0.0,4.0,78,0.00,,,0.00,Wunderground v.1.15,2013-05-27 18:12:00,
2013-05-27 13:17:00,59.6,52.7,29.89,ESE,113,6.0,8.0,78,0.00,,,0.00,Wunderground v.1.15,2013-05-27 18:17:00,
2013-05-27 13:22:00,59.4,52.9,29.89,East,98,0.0,5.0,79,0.00,,,0.00,Wunderground v.1.15,2013-05-27 18:22:00,
2013-05-27 13:27:00,59.6,53.4,29.89,East,101,9.0,9.0,80,0.00,,,0.00,Wunderground v.1.15,2013-05-27 18:27:00,
2013-05-27 13:32:00,59.6,53.1,29.89,ESE,115,7.0,7.0,79,0.00,,,0.00,Wunderground v.1.15,2013-05-27 18:32:00,
2013-05-27 13:37:00,59.6,53.1,29.90,SE,130,4.0,12.0,79,0.00,,,0.00,Wunderground v.1.15,2013-05-27 18:37:00,
2013-05-27 13:42:00,59.5,53.0,29.90,ENE,72,2.0,6.0,79,0.00,,,0.00,Wunderground v.1.15,2013-05-27 18:42:00,
2013-05-27 13:47:00,59.5,53.0,29.90,North,9,1.0,7.0,79,0.00,,,0.00,Wunderground v.1.15,2013-05-27 18:47:00,
2013-05-27 13:52:00,59.5,53.0,29.90,East,89,0.0,2.0,79,0.00,,,0.00,Wunderground v.1.15,2013-05-27 18:52:00,
2013-05-27 13:57:00,59.6,53.4,29.90,ENE,72,2.0,8.0,80,0.00,,,0.00,Wunderground v.1.15,2013-05-27 18:57:00,
2013-05-27 14:02:00,59.8,53.6,29.90,NE,55,2.0,2.0,80,0.00,,,0.00,Wunderground v.1.15,2013-05-27 19:02:00,
2013-05-27 14:08:00,59.9,53.4,29.90,NE,36,9.0,9.0,79,0.00,,,0.00,Wunderground v.1.15,2013-05-27 19:08:00,
2013-05-27 14:13:00,60.0,53.1,29.90,ENE,76,0.0,7.0,78,0.00,,,0.00,Wunderground v.1.15,2013-05-27 19:13:00,
2013-05-27 14:18:00,60.1,53.6,29.91,NE,56,0.0,7.0,79,0.00,,,0.00,Wunderground v.1.15,2013-05-27 19:18:00,
2013-05-27 14:23:00,60.1,53.6,29.91,East,101,0.0,7.0,79,0.00,,,0.00,Wunderground v.1.15,2013-05-27 19:23:00,
2013-05-27 14:28:00,60.1,53.9,29.91,East,88,2.0,7.0,80,0.00,,,0.00,Wunderground v.1.15,2013-05-27 19:28:00,
2013-05-27 14:33:00,60.2,53.7,29.91,ESE,103,0.0,8.0,79,0.00,,,0.00,Wunderground v.1.15,2013-05-27 19:33:00,
2013-05-27 14:38:00,60.3,53.8,29.91,ESE,114,5.0,8.0,79,0.00,,,0.00,Wunderground v.1.15,2013-05-27 19:38:00,
2013-05-27 14:44:00,60.5,54.3,29.90,East,90,1.0,2.0,80,0.00,,,0.00,Wunderground v.1.15,2013-05-27 19:44:00,
2013-05-27 14:49:00,60.9,54.0,29.89,SE,136,5.0,11.0,78,0.00,,,0.00,Wunderground v.1.15,2013-05-27 19:49:00,
2013-05-27 14:54:00,61.3,54.7,29.89,ENE,78,5.0,5.0,79,0.00,,,0.00,Wunderground v.1.15,2013-05-27 19:54:00,
2013-05-27 14:59:00,61.8,54.5,29.89,ENE,75,2.0,11.0,77,0.00,,,0.00,Wunderground v.1.15,2013-05-27 19:59:00,
2013-05-27 15:04:00,62.2,54.9,29.89,SSE,153,2.0,9.0,77,0.00,,,0.00,Wunderground v.1.15,2013-05-27 20:04:00,
2013-05-27 15:09:00,62.2,54.9,29.89,ESE,105,4.0,9.0,77,0.00,,,0.00,Wunderground v.1.15,2013-05-27 20:09:00,
2013-05-27 15:15:00,62.0,54.3,29.89,East,98,0.0,7.0,76,0.00,,,0.00,Wunderground v.1.15,2013-05-27 20:15:00,
2013-05-27 15:20:00,61.8,54.2,29.89,East,100,8.0,14.0,76,0.00,,,0.00,Wunderground v.1.15,2013-05-27 20:20:00,
2013-05-27 15:25:00,61.6,54.3,29.89,ESE,104,7.0,7.0,77,0.00,,,0.00,Wunderground v.1.15,2013-05-27 20:25:00,
2013-05-27 15:30:00,61.6,54.3,29.89,ENE,62,5.0,7.0,77,0.00,,,0.00,Wunderground v.1.15,2013-05-27 20:30:00,
2013-05-27 15:35:00,61.5,54.6,29.89,East,85,4.0,8.0,78,0.00,,,0.00,Wunderground v.1.15,2013-05-27 20:35:00,
2013-05-27 15:40:00,61.6,55.0,29.89,East,81,0.0,8.0,79,0.00,,,0.00,Wunderground v.1.15,2013-05-27 20:40:00,
2013-05-27 15:46:00,61.9,55.3,29.89,ESE,112,0.0,11.0,79,0.00,,,0.00,Wunderground v.1.15,2013-05-27 20:46:00,
2013-05-27 15:51:00,62.1,55.5,29.89,East,88,2.0,11.0,79,0.00,,,0.00,Wunderground v.1.15,2013-05-27 20:51:00,
2013-05-27 15:56:00,62.2,55.3,29.89,East,93,5.0,8.0,78,0.00,,,0.00,Wunderground v.1.15,2013-05-27 20:56:00,
2013-05-27 16:01:00,62.4,55.4,29.88,East,93,1.0,8.0,78,0.00,,,0.00,Wunderground v.1.15,2013-05-27 21:01:00,
2013-05-27 16:06:00,62.7,55.7,29.88,ENE,69,2.0,7.0,78,0.00,,,0.00,Wunderground v.1.15,2013-05-27 21:06:00,
2013-05-27 16:11:00,62.9,55.6,29.89,ENE,78,0.0,8.0,77,0.00,,,0.00,Wunderground v.1.15,2013-05-27 21:11:00,
2013-05-27 16:16:00,62.8,55.5,29.89,ENE,78,3.0,6.0,77,0.00,,,0.00,Wunderground v.1.15,2013-05-27 21:16:00,
2013-05-27 16:21:00,62.7,55.7,29.89,SE,139,0.0,6.0,78,0.00,,,0.00,Wunderground v.1.15,2013-05-27 21:21:00,
2013-05-27 16:26:00,62.4,55.4,29.89,ENE,57,4.0,11.0,78,0.00,,,0.00,Wunderground v.1.15,2013-05-27 21:26:00,
2013-05-27 16:31:00,62.3,55.4,29.89,ESE,118,0.0,11.0,78,0.00,,,0.00,Wunderground v.1.15,2013-05-27 21:31:00,
2013-05-27 16:36:00,62.3,55.4,29.88,East,86,4.0,8.0,78,0.00,,,0.00,Wunderground v.1.15,2013-05-27 21:36:00,
2013-05-27 16:41:00,62.3,55.7,29.89,East,81,2.0,2.0,79,0.00,,,0.00,Wunderground v.1.15,2013-05-27 21:41:00,
2013-05-27 16:46:00,62.2,55.6,29.89,ENE,75,4.0,7.0,79,0.00,,,0.00,Wunderground v.1.15,2013-05-27 21:46:00,
2013-05-27 16:52:00,62.1,55.5,29.89,East,95,2.0,2.0,79,0.00,,,0.00,Wunderground v.1.15,2013-05-27 21:52:00,
2013-05-27 16:57:00,62.1,55.9,29.89,East,94,0.0,6.0,80,0.00,,,0.00,Wunderground v.1.15,2013-05-27 21:57:00,
2013-05-27 17:02:00,62.1,55.9,29.88,East,96,11.0,11.0,80,0.00,,,0.00,Wunderground v.1.15,2013-05-27 22:02:00,
2013-05-27 17:07:00,62.1,55.9,29.88,South,178,5.0,11.0,80,0.00,,,0.00,Wunderground v.1.15,2013-05-27 22:07:00,
2013-05-27 17:12:00,62.0,55.8,29.88,ENE,72,0.0,5.0,80,0.00,,,0.00,Wunderground v.1.15,2013-05-27 22:12:00,
2013-05-27 17:17:00,62.1,55.9,29.88,East,80,4.0,11.0,80,0.00,,,0.00,Wunderground v.1.15,2013-05-27 22:17:00,
2013-05-27 17:22:00,62.1,56.2,29.88,SE,130,0.0,3.0,81,0.00,,,0.00,Wunderground v.1.15,2013-05-27 22:22:00,
2013-05-27 17:27:00,62.1,56.2,29.88,South,169,7.0,11.0,81,0.00,,,0.00,Wunderground v.1.15,2013-05-27 22:27:00,
2013-05-27 17:32:00,62.0,56.1,29.88,SE,143,6.0,8.0,81,0.00,,,0.00,Wunderground v.1.15,2013-05-27 22:32:00,
2013-05-27 17:37:00,62.0,56.1,29.87,East,89,4.0,11.0,81,0.00,,,0.00,Wunderground v.1.15,2013-05-27 22:37:00,
2013-05-27 17:43:00,62.1,56.2,29.87,ESE,104,0.0,10.0,81,0.00,,,0.00,Wunderground v.1.15,2013-05-27 22:43:00,
2013-05-27 17:48:00,62.1,56.2,29.86,East,99,4.0,13.0,81,0.00,,,0.00,Wunderground v.1.15,2013-05-27 22:48:00,
2013-05-27 17:53:00,62.1,56.5,29.86,East,94,5.0,5.0,82,0.00,,,0.00,Wunderground v.1.15,2013-05-27 22:53:00,
2013-05-27 17:58:00,62.1,56.5,29.86,ENE,59,6.0,18.0,82,0.00,,,0.00,Wunderground v.1.15,2013-05-27 22:58:00,
2013-05-27 18:03:00,62.2,56.6,29.86,East,91,6.0,8.0,82,0.00,,,0.00,Wunderground v.1.15,2013-05-27 23:03:00,
2013-05-27 18:08:00,62.2,56.3,29.86,ENE,77,7.0,8.0,81,0.00,,,0.00,Wunderground v.1.15,2013-05-27 23:08:00,
2013-05-27 18:13:00,62.1,56.5,29.86,ESE,113,0.0,7.0,82,0.00,,,0.00,Wunderground v.1.15,2013-05-27 23:13:00,
2013-05-27 18:18:00,62.1,56.5,29.85,ESE,107,9.0,9.0,82,0.00,,,0.00,Wunderground v.1.15,2013-05-27 23:18:00,
2013-05-27 18:24:00,62.0,56.4,29.85,East,80,4.0,7.0,82,0.00,,,0.00,Wunderground v.1.15,2013-05-27 23:24:00,
2013-05-27 18:29:00,62.0,56.4,29.85,East,84,4.0,7.0,82,0.00,,,0.00,Wunderground v.1.15,2013-05-27 23:29:00,
2013-05-27 18:34:00,62.0,56.4,29.85,ESE,102,6.0,8.0,82,0.00,,,0.00,Wunderground v.1.15,2013-05-27 23:34:00,
2013-05-27 18:39:00,62.0,56.4,29.85,SSE,150,4.0,8.0,82,0.00,,,0.00,Wunderground v.1.15,2013-05-27 23:39:00,
2013-05-27 18:44:00,62.0,56.4,29.84,SE,140,0.0,8.0,82,0.00,,,0.00,Wunderground v.1.15,2013-05-27 23:44:00,
2013-05-27 18:49:00,61.9,56.3,29.84,East,95,5.0,9.0,82,0.00,,,0.00,Wunderground v.1.15,2013-05-27 23:49:00,
2013-05-27 18:54:00,61.8,56.2,29.85,East,100,7.0,9.0,82,0.00,,,0.00,Wunderground v.1.15,2013-05-27 23:54:00,
2013-05-27 18:59:00,61.7,56.1,29.84,ENE,67,2.0,9.0,82,0.00,,,0.00,Wunderground v.1.15,2013-05-27 23:59:00,
2013-05-27 19:04:00,61.7,56.1,29.84,SE,131,0.0,4.0,82,0.00,,,0.00,Wunderground v.1.15,2013-05-28 00:04:00,
2013-05-27 19:09:00,61.6,56.0,29.84,SE,127,7.0,9.0,82,0.00,,,0.00,Wunderground v.1.15,2013-05-28 00:09:00,
2013-05-27 19:14:00,61.6,56.0,29.84,East,83,1.0,6.0,82,0.00,,,0.00,Wunderground v.1.15,2013-05-28 00:14:00,
2013-05-27 19:19:00,61.5,56.0,29.85,ESE,115,5.0,9.0,82,0.00,,,0.00,Wunderground v.1.15,2013-05-28 00:19:00,
2013-05-27 19:24:00,61.6,56.0,29.85,SE,131,0.0,6.0,82,0.00,,,0.00,Wunderground v.1.15,2013-05-28 00:24:00,
2013-05-27 19:30:00,61.6,56.0,29.85,East,83,0.0,6.0,82,0.00,,,0.00,Wunderground v.1.15,2013-05-28 00:30:00,
2013-05-27 19:35:00,61.6,56.0,29.85,East,98,0.0,5.0,82,0.00,,,0.00,Wunderground v.1.15,2013-05-28 00:35:00,
2013-05-27 19:40:00,61.6,56.0,29.85,East,99,0.0,5.0,82,0.00,,,0.00,Wunderground v.1.15,2013-05-28 00:40:00,
2013-05-27 19:45:00,61.5,56.0,29.86,East,88,0.0,4.0,82,0.00,,,0.00,Wunderground v.1.15,2013-05-28 00:45:00,
2013-05-27 19:50:00,61.4,55.9,29.86,NE,46,0.0,7.0,82,0.00,,,0.00,Wunderground v.1.15,2013-05-28 00:50:00,
2013-05-27 19:55:00,61.3,55.8,29.86,East,89,7.0,8.0,82,0.00,,,0.00,Wunderground v.1.15,2013-05-28 00:55:00,
2013-05-27 20:00:00,61.1,55.9,29.86,East,90,5.0,8.0,83,0.00,,,0.00,Wunderground v.1.15,2013-05-28 01:00:00,
2013-05-27 20:05:00,61.1,55.9,29.87,East,94,0.0,6.0,83,0.00,,,0.00,Wunderground v.1.15,2013-05-28 01:05:00,
2013-05-27 20:11:00,60.9,55.7,29.87,ESE,103,0.0,7.0,83,0.00,,,0.00,Wunderground v.1.15,2013-05-28 01:11:00,
2013-05-27 20:16:00,60.8,55.9,29.87,East,90,0.0,6.0,84,0.00,,,0.00,Wunderground v.1.15,2013-05-28 01:16:00,
2013-05-27 20:21:00,60.6,55.7,29.87,NE,55,0.0,6.0,84,0.00,,,0.00,Wunderground v.1.15,2013-05-28 01:21:00,
2013-05-27 20:26:00,60.5,55.6,29.87,NE,55,0.0,2.0,84,0.00,,,0.00,Wunderground v.1.15,2013-05-28 01:26:00,
2013-05-27 20:31:00,60.4,55.9,29.86,ENE,65,2.0,3.0,85,0.00,,,0.00,Wunderground v.1.15,2013-05-28 01:31:00,
2013-05-27 20:36:00,60.2,55.7,29.86,East,97,0.0,5.0,85,0.00,,,0.00,Wunderground v.1.15,2013-05-28 01:36:00,
2013-05-27 20:41:00,60.2,56.0,29.86,East,86,0.0,5.0,86,0.00,,,0.00,Wunderground v.1.15,2013-05-28 01:41:00,
2013-05-27 20:46:00,60.1,55.9,29.86,East,85,0.0,0.0,86,0.00,,,0.00,Wunderground v.1.15,2013-05-28 01:46:00,
2013-05-27 20:51:00,60.0,55.8,29.86,ESE,115,0.0,5.0,86,0.00,,,0.00,Wunderground v.1.15,2013-05-28 01:51:00,
2013-05-27 20:56:00,59.9,55.7,29.86,ESE,115,0.0,1.0,86,0.00,,,0.00,Wunderground v.1.15,2013-05-28 01:56:00,
2013-05-27 21:01:00,59.8,55.9,29.86,East,88,0.0,0.0,87,0.00,,,0.00,Wunderground v.1.15,2013-05-28 02:01:00,
2013-05-27 21:07:00,59.7,55.8,29.86,ENE,77,0.0,7.0,87,0.00,,,0.00,Wunderground v.1.15,2013-05-28 02:07:00,
2013-05-27 21:12:00,59.6,55.7,29.86,East,98,0.0,2.0,87,0.00,,,0.00,Wunderground v.1.15,2013-05-28 02:12:00,
2013-05-27 21:17:00,59.6,55.7,29.86,ESE,105,0.0,4.0,87,0.00,,,0.00,Wunderground v.1.15,2013-05-28 02:17:00,
2013-05-27 21:22:00,59.5,55.6,29.86,East,88,3.0,3.0,87,0.00,,,0.00,Wunderground v.1.15,2013-05-28 02:22:00,
2013-05-27 21:27:00,59.4,55.5,29.86,ESE,112,4.0,6.0,87,0.00,,,0.00,Wunderground v.1.15,2013-05-28 02:27:00,
2013-05-27 21:32:00,59.4,55.8,29.86,ESE,105,0.0,5.0,88,0.00,,,0.00,Wunderground v.1.15,2013-05-28 02:32:00,
2013-05-27 21:37:00,59.3,55.7,29.85,ESE,107,0.0,8.0,88,0.00,,,0.00,Wunderground v.1.15,2013-05-28 02:37:00,
2013-05-27 21:42:00,59.3,55.7,29.85,East,85,0.0,4.0,88,0.00,,,0.00,Wunderground v.1.15,2013-05-28 02:42:00,
2013-05-27 21:48:00,59.2,55.6,29.85,ESE,103,8.0,8.0,88,0.00,,,0.00,Wunderground v.1.15,2013-05-28 02:48:00,
2013-05-27 21:53:00,59.1,55.5,29.86,SE,125,0.0,6.0,88,0.00,,,0.00,Wunderground v.1.15,2013-05-28 02:53:00,
2013-05-27 21:58:00,59.0,55.4,29.86,ENE,60,1.0,6.0,88,0.00,,,0.00,Wunderground v.1.15,2013-05-28 02:58:00,
2013-05-27 22:03:00,58.9,55.7,29.85,ENE,67,0.0,4.0,89,0.00,,,0.00,Wunderground v.1.15,2013-05-28 03:03:00,
2013-05-27 22:08:00,58.7,55.5,29.86,East,84,0.0,9.0,89,0.00,,,0.00,Wunderground v.1.15,2013-05-28 03:08:00,
2013-05-27 22:13:00,58.6,55.4,29.85,ESE,117,6.0,6.0,89,0.00,,,0.00,Wunderground v.1.15,2013-05-28 03:13:00,
2013-05-27 22:18:00,58.5,55.6,29.85,East,85,3.0,8.0,90,0.00,,,0.00,Wunderground v.1.15,2013-05-28 03:18:00,
2013-05-27 22:23:00,58.5,55.6,29.85,ESE,119,0.0,5.0,90,0.00,,,0.00,Wunderground v.1.15,2013-05-28 03:23:00,
2013-05-27 22:28:00,58.4,55.5,29.84,East,94,6.0,7.0,90,0.00,,,0.00,Wunderground v.1.15,2013-05-28 03:28:00,
2013-05-27 22:33:00,58.4,55.2,29.84,ESE,107,1.0,5.0,89,0.00,,,0.00,Wunderground v.1.15,2013-05-28 03:33:00,
2013-05-27 22:38:00,58.4,55.2,29.84,ENE,73,1.0,7.0,89,0.00,,,0.00,Wunderground v.1.15,2013-05-28 03:38:00,
2013-05-27 22:44:00,58.3,55.1,29.84,SE,139,8.0,10.0,89,0.00,,,0.00,Wunderground v.1.15,2013-05-28 03:44:00,
2013-05-27 22:49:00,58.2,55.0,29.84,ESE,121,1.0,10.0,89,0.00,,,0.00,Wunderground v.1.15,2013-05-28 03:49:00,
2013-05-27 22:54:00,58.1,54.9,29.84,East,88,3.0,8.0,89,0.00,,,0.00,Wunderground v.1.15,2013-05-28 03:54:00,
2013-05-27 22:59:00,58.1,54.9,29.85,SE,126,0.0,8.0,89,0.00,,,0.00,Wunderground v.1.15,2013-05-28 03:59:00,
2013-05-27 23:01:00,58.1,54.9,29.85,SE,140,4.0,8.0,89,0.00,,,0.00,Wunderground v.1.15,2013-05-28 04:01:00,
2013-05-27 23:02:00,58.0,54.8,29.85,East,96,7.0,7.0,89,0.00,,,0.00,Wunderground v.1.15,2013-05-28 04:02:00,
2013-05-27 23:03:00,58.0,54.8,29.85,East,98,2.0,7.0,89,0.00,,,0.00,Wunderground v.1.15,2013-05-28 04:03:00,
2013-05-27 23:08:00,58.0,55.1,29.85,East,92,5.0,9.0,90,0.00,,,0.00,Wunderground v.1.15,2013-05-28 04:08:00,
2013-05-27 23:14:00,58.0,55.1,29.85,SE,144,0.0,8.0,90,0.00,,,0.00,Wunderground v.1.15,2013-05-28 04:14:00,
2013-05-27 23:19:00,58.0,55.1,29.85,SSE,164,2.0,8.0,90,0.00,,,0.00,Wunderground v.1.15,2013-05-28 04:19:00,
2013-05-27 23:24:00,57.9,55.0,29.85,ESE,123,0.0,9.0,90,0.00,,,0.00,Wunderground v.1.15,2013-05-28 04:24:00,
2013-05-27 23:29:00,57.9,55.0,29.85,SE,125,0.0,13.0,90,0.00,,,0.00,Wunderground v.1.15,2013-05-28 04:29:00,
2013-05-27 23:34:00,57.8,54.9,29.85,East,92,0.0,4.0,90,0.00,,,0.00,Wunderground v.1.15,2013-05-28 04:34:00,
2013-05-27 23:39:00,57.8,54.9,29.85,East,95,0.0,11.0,90,0.00,,,0.00,Wunderground v.1.15,2013-05-28 04:39:00,
2013-05-27 23:44:00,57.8,54.9,29.84,SE,141,0.0,6.0,90,0.00,,,0.00,Wunderground v.1.15,2013-05-28 04:44:00,
2013-05-27 23:49:00,57.7,54.8,29.84,East,87,0.0,8.0,90,0.00,,,0.00,Wunderground v.1.15,2013-05-28 04:49:00,
2013-05-27 23:54:00,57.7,55.1,29.84,ESE,119,0.0,6.0,91,0.00,,,0.00,Wunderground v.1.15,2013-05-28 04:54:00,
2013-05-27 23:59:00,57.7,55.1,29.84,ENE,72,2.0,8.0,91,0.00,,,0.00,Wunderground v.1.15,2013-05-28 04:59:00,